{"data":{"norad_id":58647,"epoch":"2026-05-25T04:21:02.270592Z","epoch_age_seconds":59298,"freshness":"FRESH","line1":"1 58647U 23205C   26145.18127628  .00005477  00000+0  21225-3 0  9992","line2":"2 58647  97.3477 167.1327 0008514  58.2389 301.9678 15.26528939133998","mean_motion":15.26528939,"eccentricity":0.0008514,"inclination_deg":97.3477,"raan_deg":167.1327,"arg_perigee_deg":58.2389,"mean_anomaly_deg":301.9678,"bstar":0.00021225,"rev_number":13399,"period_min":94.331654199973,"perigee_km":480.35386151668,"apogee_km":492.04245142111,"semimajor_km":6864.3351564689,"source":"CELESTRAK","updated_at":"2026-05-25T13:38:12.257931Z"}}